Time,TemperatureF,DewpointF,PressureIn,WindDirection,WindDirectionDegrees,WindSpeedMPH,WindSpeedGustMPH,Humidity,HourlyPrecipIn,Conditions,Clouds,dailyrainin,SoftwareType,DateUTC
2013-04-04 00:02:00,56.0,36.0,-100.00,South,176,11.0,14.0,48,0.00,,,-99.99,,2013-04-04 06:02:00,
2013-04-04 00:12:00,56.0,36.0,-100.00,South,178,11.0,15.0,48,0.00,,,-99.99,,2013-04-04 06:12:00,
2013-04-04 00:22:00,56.0,37.0,-100.00,South,175,12.0,16.0,49,0.00,,,-99.99,,2013-04-04 06:22:00,
2013-04-04 00:32:00,56.0,37.0,-100.00,South,175,12.0,16.0,49,0.00,,,-99.99,,2013-04-04 06:32:00,
2013-04-04 00:42:00,56.0,37.0,-100.00,South,175,12.0,16.0,49,0.00,,,-99.99,,2013-04-04 06:42:00,
2013-04-04 00:52:00,56.0,36.0,-100.00,South,176,13.0,17.0,48,0.00,,,-99.99,,2013-04-04 06:52:00,
2013-04-04 01:01:00,56.0,36.0,-100.00,South,176,13.0,17.0,48,0.00,,,-99.99,,2013-04-04 07:01:00,
2013-04-04 01:12:00,56.0,36.0,-100.00,South,176,12.0,15.0,48,0.00,,,-99.99,,2013-04-04 07:12:00,
2013-04-04 01:22:00,56.0,36.0,-100.00,South,175,11.0,14.0,48,0.00,,,-99.99,,2013-04-04 07:22:00,
2013-04-04 01:32:00,56.0,36.0,-100.00,South,175,11.0,14.0,48,0.00,,,-99.99,,2013-04-04 07:32:00,
2013-04-04 01:42:00,56.0,36.0,-100.00,South,175,11.0,14.0,48,0.00,,,-99.99,,2013-04-04 07:42:00,
2013-04-04 01:52:00,56.0,37.0,-100.00,South,185,9.0,11.0,48,0.00,,,-99.99,,2013-04-04 07:52:00,
2013-04-04 02:02:00,56.0,37.0,-100.00,South,185,9.0,11.0,48,0.00,,,-99.99,,2013-04-04 08:02:00,
2013-04-04 02:12:00,56.0,37.0,-100.00,South,175,12.0,16.0,48,0.00,,,-99.99,,2013-04-04 08:12:00,
2013-04-04 02:22:00,56.0,37.0,-100.00,South,176,9.0,13.0,49,0.00,,,-99.99,,2013-04-04 08:22:00,
2013-04-04 02:32:00,56.0,37.0,-100.00,South,176,9.0,13.0,49,0.00,,,-99.99,,2013-04-04 08:32:00,
2013-04-04 02:43:00,54.0,37.0,-100.00,SSW,193,5.0,6.0,51,0.00,,,-99.99,,2013-04-04 08:43:00,
2013-04-04 02:52:00,54.0,37.0,-100.00,SSW,193,5.0,6.0,51,0.00,,,-99.99,,2013-04-04 08:52:00,
2013-04-04 03:02:00,54.0,37.0,-100.00,SSW,193,5.0,6.0,51,0.00,,,-99.99,,2013-04-04 09:02:00,
2013-04-04 03:12:00,55.0,37.0,-100.00,SSW,203,6.0,10.0,49,0.00,,,-99.99,,2013-04-04 09:12:00,
2013-04-04 03:22:00,55.0,36.0,-100.00,South,186,5.0,9.0,50,0.00,,,-99.99,,2013-04-04 09:22:00,
2013-04-04 03:33:00,55.0,36.0,-100.00,South,186,5.0,9.0,50,0.00,,,-99.99,,2013-04-04 09:33:00,
2013-04-04 03:43:00,56.0,36.0,-100.00,South,178,10.0,12.0,48,0.00,,,-99.99,,2013-04-04 09:43:00,
2013-04-04 03:53:00,56.0,36.0,-100.00,South,186,9.0,12.0,47,0.00,,,-99.99,,2013-04-04 09:53:00,
2013-04-04 04:03:00,56.0,36.0,-100.00,South,186,9.0,12.0,47,0.00,,,-99.99,,2013-04-04 10:03:00,
2013-04-04 04:23:00,55.0,35.0,-100.00,South,188,11.0,15.0,47,0.00,,,-99.99,,2013-04-04 10:23:00,
2013-04-04 04:32:00,55.0,35.0,-100.00,South,188,11.0,15.0,47,0.00,,,-99.99,,2013-04-04 10:32:00,
2013-04-04 04:42:00,55.0,35.0,-100.00,South,181,10.0,14.0,46,0.00,,,-99.99,,2013-04-04 10:42:00,
2013-04-04 04:53:00,55.0,35.0,-100.00,SSE,167,10.0,14.0,46,0.00,,,-99.99,,2013-04-04 10:53:00,
2013-04-04 05:02:00,55.0,35.0,-100.00,SSE,167,10.0,14.0,46,0.00,,,-99.99,,2013-04-04 11:02:00,
2013-04-04 05:22:00,55.0,35.0,-100.00,South,169,9.0,14.0,46,0.00,,,-99.99,,2013-04-04 11:22:00,
2013-04-04 05:32:00,55.0,35.0,-100.00,South,169,9.0,14.0,46,0.00,,,-99.99,,2013-04-04 11:32:00,
2013-04-04 05:42:00,55.0,35.0,-100.00,South,186,10.0,12.0,46,0.00,,,-99.99,,2013-04-04 11:42:00,
2013-04-04 05:53:00,55.0,35.0,-100.00,South,184,11.0,15.0,45,0.00,,,-99.99,,2013-04-04 11:53:00,
2013-04-04 06:02:00,55.0,35.0,-100.00,South,184,11.0,15.0,45,0.00,,,-99.99,,2013-04-04 12:02:00,
2013-04-04 06:12:00,54.0,34.0,-100.00,SSW,196,7.0,9.0,47,0.00,,,-99.99,,2013-04-04 12:12:00,
2013-04-04 06:22:00,54.0,34.0,-100.00,SSW,196,7.0,9.0,47,0.00,,,-99.99,,2013-04-04 12:22:00,
2013-04-04 06:42:00,55.0,35.0,-100.00,South,184,12.0,14.0,45,0.00,,,-99.99,,2013-04-04 12:42:00,
2013-04-04 06:52:00,56.0,35.0,-100.00,South,184,13.0,16.0,45,0.00,,,-99.99,,2013-04-04 12:52:00,
2013-04-04 07:02:00,56.0,35.0,-100.00,South,184,13.0,16.0,45,0.00,,,-99.99,,2013-04-04 13:02:00,
2013-04-04 07:12:00,55.0,34.0,-100.00,South,182,11.0,14.0,45,0.00,,,-99.99,,2013-04-04 13:12:00,
2013-04-04 07:22:00,55.0,34.0,-100.00,South,176,9.0,12.0,45,0.00,,,-99.99,,2013-04-04 13:22:00,
2013-04-04 07:32:00,55.0,34.0,-100.00,South,176,9.0,12.0,45,0.00,,,-99.99,,2013-04-04 13:32:00,
2013-04-04 07:52:00,55.0,34.0,-100.00,South,179,14.0,18.0,45,0.00,,,-99.99,,2013-04-04 13:52:00,
2013-04-04 08:02:00,55.0,34.0,-100.00,South,179,14.0,18.0,45,0.00,,,-99.99,,2013-04-04 14:02:00,
2013-04-04 08:12:00,56.0,34.0,-100.00,South,185,15.0,20.0,44,0.00,,,-99.99,,2013-04-04 14:12:00,
2013-04-04 08:22:00,56.0,34.0,-100.00,South,178,13.0,16.0,43,0.00,,,-99.99,,2013-04-04 14:22:00,
2013-04-04 08:32:00,56.0,34.0,-100.00,South,178,13.0,16.0,43,0.00,,,-99.99,,2013-04-04 14:32:00,
2013-04-04 08:52:00,56.0,34.0,-100.00,South,184,14.0,19.0,43,0.00,,,-99.99,,2013-04-04 14:52:00,
2013-04-04 09:02:00,56.0,34.0,-100.00,South,184,14.0,19.0,43,0.00,,,-99.99,,2013-04-04 15:02:00,
2013-04-04 09:12:00,57.0,33.0,-100.00,South,181,17.0,23.0,41,0.00,,,-99.99,,2013-04-04 15:12:00,
2013-04-04 09:22:00,58.0,33.0,-100.00,SSW,192,15.0,19.0,39,0.00,,,-99.99,,2013-04-04 15:22:00,
2013-04-04 09:33:00,58.0,33.0,-100.00,SSW,192,15.0,19.0,39,0.00,,,-99.99,,2013-04-04 15:33:00,
2013-04-04 09:53:00,59.0,34.0,-100.00,SSW,193,16.0,21.0,39,0.00,,,-99.99,,2013-04-04 15:53:00,
2013-04-04 10:02:00,59.0,34.0,-100.00,SSW,193,16.0,21.0,39,0.00,,,-99.99,,2013-04-04 16:02:00,
2013-04-04 10:12:00,59.0,34.0,-100.00,SSW,193,16.0,21.0,39,0.00,,,-99.99,,2013-04-04 16:12:00,
2013-04-04 10:23:00,60.0,33.0,-100.00,South,185,16.0,20.0,36,0.00,,,-99.99,,2013-04-04 16:23:00,
2013-04-04 10:32:00,60.0,33.0,-100.00,South,185,16.0,20.0,36,0.00,,,-99.99,,2013-04-04 16:32:00,
2013-04-04 10:43:00,61.0,34.0,-100.00,South,172,17.0,22.0,37,0.00,,,-99.99,,2013-04-04 16:43:00,
2013-04-04 10:53:00,61.0,34.0,-100.00,South,172,17.0,22.0,37,0.00,,,-99.99,,2013-04-04 16:53:00,
2013-04-04 11:02:00,61.0,34.0,-100.00,South,172,17.0,22.0,37,0.00,,,-99.99,,2013-04-04 17:02:00,
2013-04-04 11:12:00,63.0,35.0,-100.00,SSW,195,12.0,16.0,34,0.00,,,-99.99,,2013-04-04 17:12:00,
2013-04-04 11:22:00,62.0,35.0,-100.00,South,191,15.0,18.0,36,0.00,,,-99.99,,2013-04-04 17:22:00,
2013-04-04 11:33:00,62.0,35.0,-100.00,South,191,15.0,18.0,36,0.00,,,-99.99,,2013-04-04 17:33:00,
2013-04-04 11:42:00,63.0,35.0,-100.00,SSW,192,15.0,19.0,34,0.00,,,-99.99,,2013-04-04 17:42:00,
2013-04-04 11:52:00,65.0,36.0,-100.00,South,182,15.0,21.0,34,0.00,,,-99.99,,2013-04-04 17:52:00,
2013-04-04 12:02:00,65.0,36.0,-100.00,South,182,15.0,21.0,34,0.00,,,-99.99,,2013-04-04 18:02:00,
2013-04-04 12:12:00,65.0,36.0,-100.00,South,182,15.0,21.0,34,0.00,,,-99.99,,2013-04-04 18:12:00,
2013-04-04 12:22:00,65.0,35.0,-100.00,SSW,196,18.0,23.0,33,0.00,,,-99.99,,2013-04-04 18:22:00,
2013-04-04 12:32:00,65.0,35.0,-100.00,SSW,196,18.0,23.0,33,0.00,,,-99.99,,2013-04-04 18:32:00,
2013-04-04 12:42:00,66.0,34.0,-100.00,SSW,202,18.0,22.0,31,0.00,,,-99.99,,2013-04-04 18:42:00,
2013-04-04 12:52:00,66.0,34.0,-100.00,SSW,192,17.0,24.0,30,0.00,,,-99.99,,2013-04-04 18:52:00,
2013-04-04 13:02:00,66.0,34.0,-100.00,SSW,192,17.0,24.0,30,0.00,,,-99.99,,2013-04-04 19:02:00,
2013-04-04 13:12:00,66.0,34.0,-100.00,SSW,192,17.0,24.0,30,0.00,,,-99.99,,2013-04-04 19:12:00,
2013-04-04 13:22:00,68.0,35.0,-100.00,South,186,16.0,21.0,29,0.00,,,-99.99,,2013-04-04 19:22:00,
2013-04-04 13:32:00,68.0,35.0,-100.00,South,186,16.0,21.0,29,0.00,,,-99.99,,2013-04-04 19:32:00,
2013-04-04 13:42:00,69.0,34.0,-100.00,SSW,213,13.0,20.0,27,0.00,,,-99.99,,2013-04-04 19:42:00,
2013-04-04 13:52:00,68.0,34.0,-100.00,SW,216,15.0,22.0,28,0.00,,,-99.99,,2013-04-04 19:52:00,
2013-04-04 14:03:00,68.0,34.0,-100.00,SW,216,15.0,22.0,28,0.00,,,-99.99,,2013-04-04 20:03:00,
2013-04-04 14:12:00,67.0,34.0,-100.00,SSW,212,16.0,27.0,29,0.00,,,-99.99,,2013-04-04 20:12:00,
2013-04-04 14:22:00,68.0,34.0,-100.00,SW,226,11.0,20.0,29,0.00,,,-99.99,,2013-04-04 20:22:00,
2013-04-04 14:32:00,68.0,34.0,-100.00,SW,226,11.0,20.0,29,0.00,,,-99.99,,2013-04-04 20:32:00,
2013-04-04 14:42:00,67.0,34.0,-100.00,SSW,213,16.0,28.0,29,0.00,,,-99.99,,2013-04-04 20:42:00,
2013-04-04 14:53:00,66.0,34.0,-100.00,SW,223,12.0,19.0,30,0.00,,,-99.99,,2013-04-04 20:53:00,
2013-04-04 15:02:00,66.0,34.0,-100.00,SW,223,12.0,19.0,30,0.00,,,-99.99,,2013-04-04 21:02:00,
2013-04-04 15:12:00,66.0,34.0,-100.00,SSW,213,12.0,19.0,30,0.00,,,-99.99,,2013-04-04 21:12:00,
2013-04-04 15:22:00,66.0,34.0,-100.00,SW,216,12.0,19.0,30,0.00,,,-99.99,,2013-04-04 21:22:00,
2013-04-04 15:32:00,66.0,34.0,-100.00,SW,216,12.0,19.0,30,0.00,,,-99.99,,2013-04-04 21:32:00,
2013-04-04 15:42:00,66.0,34.0,-100.00,SW,216,12.0,19.0,30,0.00,,,-99.99,,2013-04-04 21:42:00,
2013-04-04 15:53:00,68.0,34.0,-100.00,SSW,208,12.0,18.0,29,0.00,,,-99.99,,2013-04-04 21:53:00,
2013-04-04 16:03:00,68.0,34.0,-100.00,SSW,208,12.0,18.0,29,0.00,,,-99.99,,2013-04-04 22:03:00,
2013-04-04 16:12:00,68.0,34.0,-100.00,SW,226,12.0,21.0,28,0.00,,,-99.99,,2013-04-04 22:12:00,
2013-04-04 16:22:00,68.0,34.0,-100.00,SW,226,12.0,21.0,28,0.00,,,-99.99,,2013-04-04 22:22:00,
2013-04-04 16:32:00,68.0,34.0,-100.00,SW,226,12.0,21.0,28,0.00,,,-99.99,,2013-04-04 22:32:00,
2013-04-04 16:42:00,69.0,34.0,-100.00,SW,220,12.0,21.0,28,0.00,,,-99.99,,2013-04-04 22:42:00,
2013-04-04 16:53:00,69.0,34.0,-100.00,SW,219,10.0,17.0,28,0.00,,,-99.99,,2013-04-04 22:53:00,
2013-04-04 17:02:00,69.0,34.0,-100.00,SW,219,10.0,17.0,28,0.00,,,-99.99,,2013-04-04 23:02:00,
2013-04-04 17:12:00,68.0,34.0,-100.00,SSW,202,12.0,16.0,28,0.00,,,-99.99,,2013-04-04 23:12:00,
2013-04-04 17:22:00,68.0,34.0,-100.00,SSW,195,11.0,15.0,29,0.00,,,-99.99,,2013-04-04 23:22:00,
2013-04-04 17:32:00,68.0,34.0,-100.00,SSW,195,11.0,15.0,29,0.00,,,-99.99,,2013-04-04 23:32:00,
2013-04-04 17:42:00,68.0,34.0,-100.00,SSW,195,11.0,15.0,29,0.00,,,-99.99,,2013-04-04 23:42:00,
2013-04-04 17:52:00,69.0,34.0,-100.00,SW,226,9.0,12.0,28,0.00,,,-99.99,,2013-04-04 23:52:00,
2013-04-04 18:02:00,69.0,34.0,-100.00,SW,226,9.0,12.0,28,0.00,,,-99.99,,2013-04-05 00:02:00,
2013-04-04 18:12:00,69.0,32.0,-100.00,SW,227,9.0,13.0,25,0.00,,,-99.99,,2013-04-05 00:12:00,
2013-04-04 18:22:00,67.0,33.0,-100.00,SSW,213,12.0,18.0,28,0.00,,,-99.99,,2013-04-05 00:22:00,
2013-04-04 18:32:00,67.0,33.0,-100.00,SSW,213,12.0,18.0,28,0.00,,,-99.99,,2013-04-05 00:32:00,
2013-04-04 18:42:00,66.0,34.0,-100.00,SSW,210,14.0,19.0,30,0.00,,,-99.99,,2013-04-05 00:42:00,
2013-04-04 18:52:00,66.0,34.0,-100.00,SSW,210,14.0,19.0,30,0.00,,,-99.99,,2013-04-05 00:52:00,
2013-04-04 19:02:00,66.0,34.0,-100.00,SSW,210,14.0,19.0,30,0.00,,,-99.99,,2013-04-05 01:02:00,
2013-04-04 19:12:00,66.0,33.0,-100.00,SSW,203,12.0,17.0,30,0.00,,,-99.99,,2013-04-05 01:12:00,
2013-04-04 19:22:00,65.0,33.0,-100.00,SSW,200,9.0,11.0,30,0.00,,,-99.99,,2013-04-05 01:22:00,
2013-04-04 19:32:00,65.0,33.0,-100.00,SSW,200,9.0,11.0,30,0.00,,,-99.99,,2013-04-05 01:32:00,
2013-04-04 19:42:00,65.0,33.0,-100.00,SSW,203,15.0,20.0,30,0.00,,,-99.99,,2013-04-05 01:42:00,
2013-04-04 19:53:00,65.0,33.0,-100.00,SW,217,11.0,16.0,31,0.00,,,-99.99,,2013-04-05 01:53:00,
2013-04-04 20:02:00,65.0,33.0,-100.00,SW,217,11.0,16.0,31,0.00,,,-99.99,,2013-04-05 02:02:00,
2013-04-04 20:12:00,65.0,33.0,-100.00,SW,217,11.0,16.0,31,0.00,,,-99.99,,2013-04-05 02:12:00,
2013-04-04 20:22:00,64.0,33.0,-100.00,SW,230,9.0,13.0,31,0.00,,,-99.99,,2013-04-05 02:22:00,
2013-04-04 20:32:00,64.0,33.0,-100.00,SW,230,9.0,13.0,31,0.00,,,-99.99,,2013-04-05 02:32:00,
2013-04-04 20:42:00,64.0,33.0,-100.00,SW,223,8.0,13.0,32,0.00,,,-99.99,,2013-04-05 02:42:00,
2013-04-04 20:52:00,63.0,35.0,-100.00,West,271,4.0,7.0,34,0.00,,,-99.99,,2013-04-05 02:52:00,
2013-04-04 21:02:00,63.0,35.0,-100.00,West,271,4.0,7.0,34,0.00,,,-99.99,,2013-04-05 03:02:00,
2013-04-04 21:12:00,63.0,37.0,-100.00,West,274,4.0,7.0,38,0.00,,,-99.99,,2013-04-05 03:12:00,
2013-04-04 21:22:00,63.0,36.0,-100.00,WSW,253,3.0,5.0,38,0.00,,,-99.99,,2013-04-05 03:22:00,
2013-04-04 21:32:00,63.0,36.0,-100.00,WSW,253,3.0,5.0,38,0.00,,,-99.99,,2013-04-05 03:32:00,
2013-04-04 21:43:00,62.0,36.0,-100.00,WSW,240,1.0,2.0,39,0.00,,,-99.99,,2013-04-05 03:43:00,
2013-04-04 21:53:00,62.0,36.0,-100.00,SW,229,1.0,2.0,39,0.00,,,-99.99,,2013-04-05 03:53:00,
2013-04-04 22:02:00,62.0,36.0,-100.00,SW,229,1.0,2.0,39,0.00,,,-99.99,,2013-04-05 04:02:00,
2013-04-04 22:12:00,62.0,36.0,-100.00,SW,229,1.0,2.0,39,0.00,,,-99.99,,2013-04-05 04:12:00,
2013-04-04 22:22:00,60.0,40.0,-100.00,WNW,298,2.0,4.0,48,0.00,,,-99.99,,2013-04-05 04:22:00,
2013-04-04 22:32:00,60.0,40.0,-100.00,WNW,298,2.0,4.0,48,0.00,,,-99.99,,2013-04-05 04:32:00,
2013-04-04 22:42:00,60.0,40.0,-100.00,WNW,298,2.0,4.0,48,0.00,,,-99.99,,2013-04-05 04:42:00,
2013-04-04 22:52:00,59.0,40.0,-100.00,West,261,1.0,3.0,49,0.00,,,-99.99,,2013-04-05 04:52:00,
2013-04-04 23:02:00,59.0,40.0,-100.00,West,261,1.0,3.0,49,0.00,,,-99.99,,2013-04-05 05:02:00,
2013-04-04 23:12:00,58.0,38.0,-100.00,West,271,2.0,5.0,47,0.00,,,-99.99,,2013-04-05 05:12:00,
2013-04-04 23:22:00,58.0,39.0,-100.00,WNW,299,1.0,2.0,48,0.00,,,-99.99,,2013-04-05 05:22:00,
2013-04-04 23:32:00,58.0,39.0,-100.00,WNW,299,1.0,2.0,48,0.00,,,-99.99,,2013-04-05 05:32:00,
2013-04-04 23:42:00,58.0,39.0,-100.00,WNW,299,1.0,2.0,48,0.00,,,-99.99,,2013-04-05 05:42:00,
2013-04-04 23:52:00,58.0,40.0,-100.00,West,272,4.0,8.0,50,0.00,,,-99.99,,2013-04-05 05:52:00,